{"data":{"norad_id":53066,"intl_designator":"2022-077Z","name":"STARLINK-4309","alt_names":[],"object_type":"PAYLOAD","status":"ACTIVE","operator":null,"country":"US","launch_date":"2022-07-11","launch_site_code":"AFWTR","launch_vehicle":null,"mission":null,"orbit_class":"UNKNOWN","rcs_meters":null,"size_class":null,"mass_kg":null,"dimensions":null,"purposes":["comms"],"wikipedia_slug":null,"has_3d_model":false,"image_url":null,"decayed_at":null,"tle_current":{"epoch":"2026-09-20T03:22:21.170784Z","epoch_age_seconds":100526,"freshness":"FRESH","line1":"1 53066U 22077Z   26263.14052281  .00002742  00000+0  87228-4 0  9995","line2":"2 53066  97.2853  77.9126 0001727  86.6734 273.4706 15.33442532230230","mean_motion":15.33442532,"eccentricity":0.0001727,"inclination_deg":97.2853,"raan_deg":77.9126,"arg_perigee_deg":86.6734,"mean_anomaly_deg":273.4706,"bstar":8.7228e-5,"rev_number":23023,"period_min":93.906355794232,"perigee_km":464.36861268532,"apogee_km":466.73242235387,"semimajor_km":6843.6875175196,"source":"CELESTRAK","updated_at":"2026-09-20T09:00:40.154765Z"}}}